When you browse on this site, cookies collect data to enhance your experience and personalize the content and advertising you see.
Visit our Privacy Policy to learn more. By continuing to use the site, you agree to this use of cookies and data.
  • In Hungary
  • List of Countries
  • For 7 days
  • Water Temperature
  • Satellite Maps
  • Weather Map
  • News
  • Weather Widgets
  • user-avatar
    Login

    Hourly Weather Banjul

    Today, 17 January, Thursday

    Time Temperature Precipitation Wind Pressure Humidity
    00:00 +25°C° 0 mm 5 mps 759 mmHg 44%
    01:00 +25°C° 0 mm 5 mps 759 mmHg 44%
    02:00 +25°C° 0 mm 5 mps 758 mmHg 43%
    03:00 +23°C° 0 mm 5 mps 758 mmHg 43%
    04:00 +23°C° 0 mm 5 mps 758 mmHg 43%
    05:00 +23°C° 0 mm 4 mps 758 mmHg 43%
    06:00 +23°C° 0 mm 4 mps 759 mmHg 41%
    07:00 +25°C° 0 mm 4 mps 759 mmHg 39%
    08:00 +25°C° 0 mm 4 mps 759 mmHg 37%
    09:00 +27°C° 0 mm 4 mps 759 mmHg 31%
    10:00 +30°C° 0 mm 3 mps 759 mmHg 26%
    11:00 +33°C° 0 mm 3 mps 759 mmHg 20%
    12:00 +34°C° 0 mm 3 mps 759 mmHg 20%
    13:00 +35°C° 0 mm 4 mps 758 mmHg 20%
    14:00 +36°C° 0 mm 4 mps 757 mmHg 20%
    15:00 +34°C° 0 mm 5 mps 757 mmHg 28%
    16:00 +32°C° 0 mm 5 mps 757 mmHg 36%
    17:00 +30°C° 0 mm 6 mps 757 mmHg 44%
    18:00 +29°C° 0 mm 6 mps 758 mmHg 46%
    19:00 +28°C° 0 mm 6 mps 758 mmHg 48%
    20:00 +27°C° 0 mm 6 mps 759 mmHg 50%
    21:00 +26°C° 0 mm 5 mps 759 mmHg 45%
    22:00 +26°C° 0 mm 5 mps 759 mmHg 41%
    23:00 +25°C° 0 mm 5 mps 759 mmHg 37%

    Tomorrow, 18 January, Friday

    Time Temperature Precipitation Wind Pressure Humidity
    00:00 +25°C° 0 mm 5 mps 759 mmHg 37%
    01:00 +25°C° 0 mm 5 mps 759 mmHg 37%
    02:00 +23°C° 0 mm 6 mps 759 mmHg 38%
    03:00 +23°C° 0 mm 6 mps 759 mmHg 37%
    04:00 +22°C° 0 mm 6 mps 759 mmHg 36%
    05:00 +22°C° 0 mm 6 mps 759 mmHg 35%
    06:00 +22°C° 0 mm 6 mps 759 mmHg 33%
    07:00 +23°C° 0 mm 7 mps 760 mmHg 30%
    08:00 +23°C° 0 mm 7 mps 760 mmHg 27%
    09:00 +26°C° 0 mm 7 mps 760 mmHg 23%
    10:00 +28°C° 0 mm 6 mps 760 mmHg 18%
    11:00 +32°C° 0 mm 6 mps 760 mmHg 13%
    12:00 +33°C° 0 mm 6 mps 760 mmHg 12%
    13:00 +34°C° 0 mm 5 mps 759 mmHg 12%
    14:00 +35°C° 0 mm 5 mps 758 mmHg 11%
    15:00 +35°C° 0 mm 5 mps 758 mmHg 12%
    16:00 +35°C° 0 mm 5 mps 758 mmHg 13%
    17:00 +34°C° 0 mm 5 mps 758 mmHg 15%
    18:00 +33°C° 0 mm 5 mps 758 mmHg 16%
    19:00 +30°C° 0 mm 5 mps 759 mmHg 17%
    20:00 +29°C° 0 mm 6 mps 760 mmHg 19%
    21:00 +28°C° 0 mm 6 mps 760 mmHg 20%
    22:00 +27°C° 0 mm 6 mps 760 mmHg 21%
    23:00 +26°C° 0 mm 6 mps 760 mmHg 22%

    Day after tomorrow, 19 January, Saturday

    Time Temperature Precipitation Wind Pressure Humidity
    00:00 +26°C° 0 mm 7 mps 760 mmHg 23%
    01:00 +24°C° 0 mm 8 mps 760 mmHg 23%
    02:00 +23°C° 0 mm 8 mps 760 mmHg 24%
    03:00 +23°C° 0 mm 8 mps 760 mmHg 25%
    04:00 +22°C° 0 mm 8 mps 760 mmHg 26%
    05:00 +22°C° 0 mm 8 mps 760 mmHg 27%
    06:00 +22°C° 0 mm 8 mps 760 mmHg 27%
    07:00 +22°C° 0 mm 8 mps 761 mmHg 27%
    08:00 +22°C° 0 mm 9 mps 761 mmHg 27%
    09:00 +24°C° 0 mm 8 mps 761 mmHg 25%
    10:00 +27°C° 0 mm 8 mps 761 mmHg 23%
    11:00 +29°C° 0 mm 8 mps 761 mmHg 21%
    12:00 +30°C° 0 mm 7 mps 760 mmHg 19%
    13:00 +32°C° 0 mm 6 mps 760 mmHg 17%
    14:00 +34°C° 0 mm 6 mps 759 mmHg 15%
    15:00 +33°C° 0 mm 5 mps 759 mmHg 16%
    16:00 +33°C° 0 mm 5 mps 759 mmHg 16%
    17:00 +33°C° 0 mm 5 mps 758 mmHg 16%
    18:00 +30°C° 0 mm 5 mps 759 mmHg 18%
    19:00 +29°C° 0 mm 5 mps 760 mmHg 19%
    20:00 +27°C° 0 mm 5 mps 760 mmHg 21%
    21:00 +27°C° 0 mm 5 mps 760 mmHg 21%
    22:00 +26°C° 0 mm 5 mps 761 mmHg 21%
    23:00 +24°C° 0 mm 6 mps 761 mmHg 21%

    20 January, Sunday

    Time Temperature Precipitation Wind Pressure Humidity
    00:00 +24°C° 0 mm 6 mps 761 mmHg 21%
    01:00 +23°C° 0 mm 6 mps 760 mmHg 20%
    02:00 +23°C° 0 mm 7 mps 760 mmHg 20%
    03:00 +22°C° 0 mm 7 mps 760 mmHg 20%
    04:00 +22°C° 0 mm 7 mps 760 mmHg 20%
    05:00 +21°C° 0 mm 7 mps 760 mmHg 21%
    06:00 +21°C° 0 mm 7 mps 761 mmHg 20%
    07:00 +21°C° 0 mm 7 mps 761 mmHg 20%
    08:00 +22°C° 0 mm 7 mps 761 mmHg 20%
    09:00 +24°C° 0 mm 7 mps 761 mmHg 18%
    10:00 +28°C° 0 mm 7 mps 761 mmHg 16%
    11:00 +30°C° 0 mm 6 mps 761 mmHg 15%
    12:00 +32°C° 0 mm 5 mps 760 mmHg 14%
    13:00 +34°C° 0 mm 5 mps 760 mmHg 13%
    14:00 +35°C° 0 mm 4 mps 759 mmHg 12%
    15:00 +35°C° 0 mm 4 mps 759 mmHg 12%
    16:00 +35°C° 0 mm 4 mps 759 mmHg 13%
    17:00 +34°C° 0 mm 3 mps 759 mmHg 13%
    18:00 +31°C° 0 mm 3 mps 759 mmHg 19%
    19:00 +29°C° 0 mm 4 mps 760 mmHg 25%
    20:00 +27°C° 0 mm 4 mps 760 mmHg 30%
    21:00 +27°C° 0 mm 4 mps 761 mmHg 27%
    22:00 +26°C° 0 mm 4 mps 761 mmHg 24%
    23:00 +26°C° 0 mm 4 mps 761 mmHg 21%

    21 January, Monday

    Time Temperature Precipitation Wind Pressure Humidity
    00:00 +25°C° 0 mm 5 mps 761 mmHg 19%
    01:00 +25°C° 0 mm 5 mps 760 mmHg 16%
    02:00 +23°C° 0 mm 5 mps 760 mmHg 14%
    03:00 +23°C° 0 mm 6 mps 760 mmHg 13%
    04:00 +22°C° 0 mm 6 mps 760 mmHg 12%
    05:00 +22°C° 0 mm 6 mps 760 mmHg 12%
    06:00 +22°C° 0 mm 7 mps 761 mmHg 11%
    07:00 +22°C° 0 mm 7 mps 761 mmHg 11%
    08:00 +23°C° 0 mm 7 mps 762 mmHg 11%
    09:00 +26°C° 0 mm 7 mps 762 mmHg 10%
    10:00 +28°C° 0 mm 6 mps 761 mmHg 10%
    11:00 +32°C° 0 mm 6 mps 761 mmHg 9%
    12:00 +33°C° 0 mm 5 mps 760 mmHg 9%
    13:00 +34°C° 0 mm 5 mps 759 mmHg 8%
    14:00 +35°C° 0 mm 4 mps 759 mmHg 8%
    15:00 +35°C° 0 mm 4 mps 759 mmHg 9%
    16:00 +35°C° 0 mm 4 mps 758 mmHg 9%
    17:00 +34°C° 0 mm 4 mps 758 mmHg 10%
    18:00 +33°C° 0 mm 4 mps 759 mmHg 13%
    19:00 +30°C° 0 mm 4 mps 759 mmHg 16%
    20:00 +28°C° 0 mm 3 mps 760 mmHg 18%
    21:00 +27°C° 0 mm 4 mps 760 mmHg 16%
    22:00 +26°C° 0 mm 4 mps 760 mmHg 14%
    23:00 +26°C° 0 mm 5 mps 760 mmHg 12%

    22 January, Tuesday

    Time Temperature Precipitation Wind Pressure Humidity
    00:00 +25°C° 0 mm 5 mps 760 mmHg 12%
    01:00 +25°C° 0 mm 5 mps 760 mmHg 12%
    02:00 +23°C° 0 mm 6 mps 760 mmHg 12%
    03:00 +23°C° 0 mm 6 mps 760 mmHg 12%
    04:00 +22°C° 0 mm 6 mps 760 mmHg 12%
    05:00 +21°C° 0 mm 6 mps 760 mmHg 12%
    06:00 +22°C° 0 mm 6 mps 760 mmHg 12%
    07:00 +22°C° 0 mm 6 mps 760 mmHg 12%
    08:00 +22°C° 0 mm 6 mps 761 mmHg 13%
    09:00 +26°C° 0 mm 6 mps 761 mmHg 11%
    10:00 +28°C° 0 mm 6 mps 761 mmHg 10%
    11:00 +32°C° 0 mm 6 mps 760 mmHg 9%
    12:00 +33°C° 0 mm 5 mps 760 mmHg 8%
    13:00 +34°C° 0 mm 4 mps 759 mmHg 8%
    14:00 +35°C° 0 mm 4 mps 758 mmHg 7%
    15:00 +34°C° 0 mm 4 mps 758 mmHg 9%
    16:00 +34°C° 0 mm 3 mps 757 mmHg 10%
    17:00 +34°C° 0 mm 3 mps 757 mmHg 11%
    18:00 +31°C° 0 mm 3 mps 758 mmHg 18%
    19:00 +28°C° 0 mm 3 mps 758 mmHg 25%
    20:00 +26°C° 0 mm 4 mps 758 mmHg 31%
    21:00 +26°C° 0 mm 4 mps 759 mmHg 28%
    22:00 +26°C° 0 mm 4 mps 759 mmHg 24%
    23:00 +25°C° 0 mm 4 mps 759 mmHg 21%
    Show more